Location: ?????????
(55.6553°N, 38.9075°E)
Time: 08:02:20
(UTC+00:00)

CENTAUR R/B - Pass Details

Date: 18 October 2019
Orbit: 781 x 1407 km, 63.4° (Epoch: 07 November)

Event Time Altitude Azimuth Distance (km) Brightness Sun altitude
Exits shadow 01:38:04 16° 305° (NW) 2,752 4.5 -20.6°
Maximum altitude 01:44:27 64° 229° (SW) 1,452 3.1 -19.7°
Drops below altitude 10° 01:52:53 10° 151° (SSE) 3,470 5.6 -18.6°
Sets 01:55:53 0° 149° (SSE) 4,462 6.2 -18.2°
